星链-6143 (STARLINK-6143 )

导读

STARLINK-6143是美国SpaceX公司星链星座中的一颗互联网通信卫星,于2023年6月23日发射升空,属于星链大规模低轨卫星组网计划的组成部分。星链项目旨在通过数千颗低轨卫星,为全球偏远、基础设施匮乏地区提供高速低延迟宽带互联网接入,该卫星运行在近550公里的近地轨道,是全球覆盖卫星互联网网络的节点之一。

Basic Information
目录编号:
57133
目录名称:
STARLINK-6143
国际标识:
2023-090AJ
轨道中心:
EARTH
卫星名称:
星链-6143
卫星全名:
星链-6143 (STARLINK-6143 )
卫星状态:
在轨 (已飞行1169 天)
发射日期:
2023-06-23 UTC
国别 :
美国 (US)
星等 :
--
Orbit Information
数据来源 国际轨道数据
星历时间: 2026-09-04T01:35:30+0800
15小时前
查看轨道信息
半长轴: 6861.196km
偏心率: 0.0001501
轨道倾角: 43.003°
近地点辐角 264.280°
升交点赤经 337.777°
平近点角 95.788°
近地点: 482.029km
远地点: 484.089km
周期: 94.267分钟
每日圈数: 15.27577
Detailed Information
固有亮度:
5
最大亮度:
2.4
卫星平台:
Starlink v1.5
覆盖范围:
全球
运营商:
太空探索技术公司
运营商所在国:
美国
制造商(研发单位):
太空探索技术公司
制造商所在国:
美国
使用方式:
暂无
Satellite Introduction
星链(Starlink)计划是由太空探索技术公司(SpaceX)提出的一个巨型低轨卫星互联网星座项目,计划在2019年至2024年间在太空搭建由约1.2万颗卫星组成的“星链”网络,其中1584颗将部署在地球上空550千米处的近地轨道,并从2020年开始工作。该卫星仍在工作。
2D Orbit Map
3D Orbit Map
Orbit Altitude Analysis Chart
Orbit Inclination Analysis Chart
Orbit Comprehensive Analysis Chart
View Comprehensive Chart
Conjunction Data List
Event ID Objects TCA Miss Dist (km) Collision Risk Probability Collision Risk Index (CRI) Action
CDM_260906-131005-713306-433421
2026-09-06T
13:10:54+0000
0.461 km
远距离
1.936182E-4 高风险 0.81
CDM_260905-191405-713306-712521
2026-09-05T
19:14:55+0000
0.540 km
远距离
1.140674E-4 高风险 0.76
CDM_260905-055405-713306-712521
2026-09-05T
05:54:36+0000
0.793 km
远距离
3.701225E-5 中风险 0.66
CDM_260905-042005-713306-712521
2026-09-05T
04:20:27+0000
1.047 km
极远距离
1.452076E-5 中风险 0.58
CDM_260906-113605-713306-433421
2026-09-06T
11:36:45+0000
1.743 km
极远距离
3.204383E-6 低风险 0.45
CDM_260905-204905-713306-712521
2026-09-05T
20:49:04+0000
2.038 km
极远距离
1.806848E-6 低风险 0.4
CDM_260904-115205-694405-713322
2026-09-04T
11:52:47+0000
2.169 km
极远距离
1.717653E-6 低风险 0.4
CDM_260906-144505-713306-433421
2026-09-06T
14:45:03+0000
2.398 km
极远距离
1.485618E-6 低风险 0.38
CDM_260905-174005-713306-712521
2026-09-05T
17:40:45+0000
2.419 km
极远距离
1.259653E-6 低风险 0.37
CDM_260905-072805-713306-712521
2026-09-05T
07:28:45+0000
2.663 km
极远距离
1.075916E-6 低风险 0.36